TimeEST,TemperatureF,Dew PointF,Humidity,Sea Level PressureIn,VisibilityMPH,Wind Direction,Wind SpeedMPH,Gust SpeedMPH,PrecipitationIn,Events,Conditions,WindDirDegrees,DateUTC
12:15 AM,21.2,-5.8,30,30.25,10.0,South,4.6,-,N/A,,Clear,170,2014-01-25 05:15:00
12:35 AM,21.2,-5.8,30,30.24,10.0,South,3.5,-,N/A,,Clear,170,2014-01-25 05:35:00
12:55 AM,21.2,-4.0,33,30.23,10.0,South,4.6,-,N/A,,Clear,180,2014-01-25 05:55:00
1:15 AM,23.0,-4.0,31,30.21,10.0,South,6.9,-,N/A,,Clear,180,2014-01-25 06:15:00
1:35 AM,23.0,-4.0,31,30.19,10.0,South,9.2,-,N/A,,Clear,190,2014-01-25 06:35:00
1:55 AM,23.0,-4.0,31,30.18,10.0,South,9.2,18.4,N/A,,Clear,190,2014-01-25 06:55:00
2:15 AM,23.0,-2.2,33,30.17,10.0,SSW,10.4,-,N/A,,Clear,200,2014-01-25 07:15:00
2:35 AM,23.0,-2.2,33,30.16,10.0,SSW,6.9,-,N/A,,Clear,200,2014-01-25 07:35:00
2:55 AM,21.2,-2.2,36,30.15,10.0,SSW,8.1,-,N/A,,Clear,210,2014-01-25 07:55:00
3:15 AM,21.2,-2.2,36,30.15,10.0,SW,6.9,-,N/A,,Clear,220,2014-01-25 08:15:00
3:35 AM,21.2,-2.2,36,30.13,10.0,South,5.8,-,N/A,,Clear,180,2014-01-25 08:35:00
3:55 AM,21.2,-2.2,36,30.11,10.0,South,3.5,-,N/A,,Clear,170,2014-01-25 08:55:00
4:15 AM,21.2,-2.2,36,30.10,10.0,South,3.5,-,N/A,,Clear,190,2014-01-25 09:15:00
4:35 AM,21.2,-2.2,36,30.07,10.0,South,4.6,-,N/A,,Clear,180,2014-01-25 09:35:00
4:55 AM,23.0,-0.4,36,30.06,10.0,South,9.2,-,N/A,,Clear,190,2014-01-25 09:55:00
5:15 AM,23.0,-0.4,36,30.05,10.0,SSW,10.4,-,N/A,,Clear,200,2014-01-25 10:15:00
5:35 AM,24.8,-0.4,34,30.04,10.0,SSW,10.4,18.4,N/A,,Clear,210,2014-01-25 10:35:00
5:55 AM,24.8,-0.4,34,30.04,10.0,SSW,12.7,17.3,N/A,,Clear,210,2014-01-25 10:55:00
6:15 AM,24.8,-0.4,34,30.03,10.0,SSW,12.7,18.4,N/A,,Clear,210,2014-01-25 11:15:00
6:35 AM,24.8,-0.4,34,30.02,10.0,South,11.5,18.4,N/A,,Clear,190,2014-01-25 11:35:00
6:51 AM,24.8,-0.4,34,30.00,10.0,SSW,11.5,18.4,N/A,,Clear,200,2014-01-25 11:51:00
7:51 AM,24.8,-0.4,34,29.98,10.0,SW,16.1,20.7,N/A,,Clear,230,2014-01-25 12:51:00
8:55 AM,28.4,-0.4,29,29.94,10.0,SW,12.7,20.7,N/A,,Clear,220,2014-01-25 13:55:00
9:55 AM,30.2,-0.4,27,29.89,10.0,SSW,17.3,23.0,N/A,,Overcast,210,2014-01-25 14:55:00
10:52 AM,33.8,-0.4,23,29.86,10.0,SSW,12.7,24.2,N/A,,Mostly Cloudy,210,2014-01-25 15:52:00
11:51 AM,37.4,-0.4,20,29.80,10.0,SW,17.3,28.8,N/A,,Mostly Cloudy,230,2014-01-25 16:51:00
12:55 PM,37.4,-0.4,20,29.75,10.0,SW,12.7,25.3,N/A,,Overcast,230,2014-01-25 17:55:00
1:51 PM,39.2,1.4,21,29.74,10.0,WSW,19.6,27.6,N/A,,Overcast,240,2014-01-25 18:51:00
2:55 PM,39.2,3.2,22,29.72,10.0,SW,16.1,23.0,N/A,,Overcast,230,2014-01-25 19:55:00
3:55 PM,39.2,6.8,26,29.72,10.0,WSW,10.4,23.0,N/A,,Mostly Cloudy,240,2014-01-25 20:55:00
5:55 PM,39.2,10.4,31,29.77,10.0,WSW,8.1,16.1,N/A,,Scattered Clouds,240,2014-01-25 22:55:00
6:55 PM,37.4,10.4,33,29.79,10.0,SW,8.1,16.1,N/A,,Clear,230,2014-01-25 23:55:00
7:55 PM,35.6,12.2,38,29.82,10.0,SW,8.1,-,N/A,,Clear,230,2014-01-26 00:55:00
8:15 PM,35.6,12.2,38,29.82,10.0,SW,6.9,-,N/A,,Clear,230,2014-01-26 01:15:00
8:35 PM,33.8,14.0,44,29.81,10.0,SSW,8.1,-,N/A,,Clear,200,2014-01-26 01:35:00
8:55 PM,33.8,14.0,44,29.81,10.0,SSW,10.4,-,N/A,,Clear,210,2014-01-26 01:55:00
8:56 PM,35.6,14.0,41,29.81,10.0,SW,10.4,-,N/A,,Clear,230,2014-01-26 01:56:00
9:15 PM,35.6,14.0,41,29.82,10.0,SW,8.1,17.3,N/A,,Clear,220,2014-01-26 02:15:00
9:52 PM,35.6,14.0,41,29.82,10.0,WSW,9.2,-,N/A,,Clear,240,2014-01-26 02:52:00
10:15 PM,35.6,15.8,44,29.83,10.0,SW,10.4,-,N/A,,Clear,220,2014-01-26 03:15:00
10:35 PM,33.8,15.8,48,29.83,10.0,SW,12.7,17.3,N/A,,Clear,220,2014-01-26 03:35:00
10:52 PM,35.6,15.8,44,29.84,10.0,SW,10.4,16.1,N/A,,Clear,230,2014-01-26 03:52:00
10:55 PM,33.8,15.8,48,29.84,10.0,SW,9.2,16.1,N/A,,Clear,220,2014-01-26 03:55:00
11:15 PM,33.8,15.8,48,29.85,10.0,SW,8.1,-,N/A,,Clear,230,2014-01-26 04:15:00
11:35 PM,33.8,15.8,48,29.86,10.0,SW,8.1,-,N/A,,Clear,230,2014-01-26 04:35:00
11:55 PM,33.8,15.8,48,29.87,10.0,SW,6.9,-,N/A,,Clear,230,2014-01-26 04:55:00